Theta_e
316 320 323 327 324 318 323 327 323 331 333 328 333 337 339 343 344 340 339 336 338 341 336 340 339 342 340 337 338 342 335 330 326 330 330 330 331 332 330 327 333 338 333 330 325 325 326 330 334
320 323 325 326 320 324 325 323 325 325 325 338 338 337 337 342 342 336 334 335 338 340 341 338 346 343 337 335 332 330 329 326 327 331 333 333 335 335 333 329 332 338 330 328 326 326 327 329 330
323 324 325 318 317 324 326 324 324 323 324 326 337 339 341 342 342 337 334 333 334 337 341 339 339 338 337 333 331 328 327 325 331 335 335 338 336 334 335 332 333 338 330 328 326 326 327 328 329
324 325 320 317 322 321 324 322 321 321 324 331 339 341 343 342 343 337 332 332 334 337 339 340 339 339 338 337 333 329 327 325 336 336 341 342 338 335 333 334 332 331 332 327 327 326 327 328 329
324 324 318 320 321 320 320 320 321 322 322 329 336 342 344 340 339 333 331 331 331 333 334 336 338 338 336 336 334 332 328 326 340 337 336 335 336 338 335 334 333 334 338 331 327 326 326 327 329
324 318 318 320 321 320 319 320 321 321 322 322 335 343 343 343 342 336 334 332 334 336 336 337 336 335 335 337 336 333 327 326 343 342 335 337 336 335 337 334 332 333 335 334 331 327 326 327 329
321 316 318 320 320 321 322 321 321 321 322 322 323 341 342 343 345 341 338 337 337 338 338 337 338 338 337 337 336 337 334 326 331 340 339 337 336 330 339 340 335 333 333 334 336 330 326 327 328
323 314 320 319 321 322 320 322 322 322 322 322 333 335 334 341 346 342 342 341 341 341 341 341 341 341 341 341 341 340 339 336 328 333 333 338 336 329 333 339 339 335 334 334 334 333 329 327 329
321 315 316 321 320 322 320 319 321 321 322 322 322 322 327 326 345 345 344 342 341 341 341 342 343 343 343 342 341 341 342 338 335 334 336 337 339 334 329 331 336 338 334 333 334 333 331 328 329
318 313 316 319 318 319 320 321 321 322 321 321 321 325 324 331 340 341 344 345 344 343 341 341 342 342 343 344 340 340 339 339 337 335 335 336 338 336 331 327 328 337 336 334 334 334 333 331 328
319 318 319 321 322 322 321 321 322 321 320 321 321 321 321 321 321 322 325 328 332 338 341 341 340 342 343 342 343 341 340 339 338 335 329 336 337 334 332 330 327 331 334 334 334 334 334 332 329
320 320 320 321 321 321 320 321 321 321 321 321 321 320 321 320 321 320 320 320 320 321 327 333 339 342 343 344 344 344 343 341 340 338 334 331 337 335 333 332 330 327 327 327 333 334 334 333 330
319 319 320 321 321 320 320 319 320 320 320 320 320 320 320 320 320 320 319 320 321 321 321 321 321 323 329 335 333 331 341 343 341 341 339 337 334 334 336 333 328 327 325 324 333 335 334 334 333
319 319 319 320 320 319 318 318 319 319 318 318 319 318 317 317 318 318 320 322 323 323 323 323 325 326 327 331 333 332 331 331 335 341 340 340 339 336 335 334 326 323 326 324 332 333 334 333 334
319 318 316 318 318 318 318 318 318 318 317 318 318 317 316 318 317 319 322 323 323 323 322 323 323 323 327 332 334 334 333 332 332 335 339 340 340 339 337 337 334 327 332 331 336 334 334 333 333
317 315 317 317 317 317 318 318 316 317 317 316 316 315 317 321 322 322 321 320 318 318 320 320 321 321 321 322 323 326 329 334 335 337 336 336 338 339 337 335 335 335 333 335 334 333 334 333 332
315 319 319 318 316 316 315 315 315 317 316 315 313 315 320 319 318 314 312 311 311 311 313 316 319 320 321 320 320 319 320 322 325 334 335 337 337 337 337 336 335 335 335 334 333 334 334 333 331
319 320 319 317 316 314 313 313 312 315 314 311 316 316 314 310 305 305 305 305 306 307 307 308 312 316 318 319 321 321 321 320 321 323 325 332 336 335 335 333 335 335 335 334 333 334 333 332 331
318 318 316 313 313 311 313 312 310 311 311 312 308 304 303 303 303 304 304 304 305 305 305 304 304 307 312 315 316 317 319 320 320 320 320 322 323 326 329 333 334 335 336 334 332 331 332 328 330
312 313 311 310 311 309 309 310 308 304 302 302 301 302 304 304 305 305 305 305 305 305 304 304 304 303 302 304 306 308 311 316 317 319 320 320 320 322 322 324 330 330 334 334 332 330 331 330 330
310 309 308 308 308 308 308 308 309 302 300 302 303 304 304 304 305 305 305 306 306 307 307 308 308 308 304 303 303 304 307 309 313 316 318 320 321 322 322 322 325 330 334 334 332 331 330 331 331
310 306 307 307 306 306 307 306 308 303 300 301 303 303 304 304 305 305 305 305 304 303 304 304 306 308 310 308 303 303 303 305 307 313 316 318 322 323 323 323 324 329 332 333 333 332 331 331 331
307 306 306 306 305 306 305 306 304 305 305 301 302 303 304 304 304 304 303 302 302 302 302 303 302 303 305 308 308 304 303 302 303 307 316 320 322 324 325 324 324 329 331 330 332 331 331 331 329
305 305 304 302 304 304 304 305 303 304 305 302 302 304 304 304 304 303 302 302 301 301 302 303 304 304 303 305 305 307 304 305 302 304 317 319 323 323 326 327 325 332 332 331 330 330 330 328 325
303 301 303 301 301 301 303 304 303 302 302 302 302 303 303 303 303 303 302 301 301 301 303 303 304 304 304 305 305 307 307 304 303 308 318 320 321 323 323 328 331 331 331 329 329 329 325 326 328
304 303 302 305 304 302 302 304 304 301 303 303 304 303 303 303 303 303 302 301 300 303 304 304 303 303 303 303 307 309 307 307 308 313 318 319 320 321 323 327 330 330 329 329 329 327 326 326 323
303 302 302 302 301 302 303 302 303 302 302 304 304 304 303 301 301 302 302 301 300 302 303 303 301 300 300 301 302 302 303 303 306 312 316 318 320 320 323 327 328 327 328 328 326 325 325 325 323
302 301 301 300 298 303 301 299 300 304 304 303 304 303 302 302 302 302 302 301 300 300 302 303 300 300 300 299 299 301 302 302 302 308 315 317 318 321 324 328 326 329 328 328 326 326 324 324 322
302 301 300 299 299 296 298 298 299 299 299 299 300 302 302 303 303 301 302 301 301 300 300 302 301 300 300 300 299 299 301 302 303 305 314 316 317 319 324 324 326 328 328 324 323 326 324 321 322
302 301 298 299 296 296 296 299 299 297 300 301 301 302 303 303 303 301 301 302 301 300 300 300 300 300 300 300 299 299 300 301 305 307 315 316 316 318 321 322 325 325 325 324 324 325 321 322 324
Wind_Speed
2 2 2 3 4 5 1 2 2 3 2 4 3 4 5 3 1 2 2 7 3 7 12 14 13 12 11 11 9 9 8 7 6 7 8 8 6 5 3 4 4 3 3 3 4 4 4 5 8
3 4 4 4 4 3 4 3 2 2 3 4 4 3 4 2 2 1 3 2 1 5 11 13 13 13 12 10 9 9 8 8 8 8 8 8 6 4 3 3 3 3 2 2 2 2 2 3 5
3 3 2 4 3 3 3 3 3 5 6 0 2 3 2 2 2 3 2 2 2 5 10 13 14 14 12 11 10 10 9 9 9 9 8 7 7 6 5 4 4 3 1 1 1 0 0 1 3
2 2 5 4 1 2 2 2 3 7 1 8 3 3 0 1 0 3 4 1 1 3 6 11 14 13 13 11 11 11 10 10 10 9 8 8 8 6 6 5 5 4 2 2 2 2 2 1 2
2 3 4 2 3 3 2 3 4 3 2 5 1 2 2 1 2 1 0 1 2 3 4 8 13 12 12 12 11 12 11 11 11 10 11 12 9 9 7 6 5 4 3 3 3 4 4 3 1
3 3 4 2 3 3 3 3 2 2 5 3 1 1 3 4 2 1 1 1 2 2 2 4 8 10 11 11 12 12 12 12 14 14 12 11 11 10 9 7 7 7 7 5 4 5 6 5 3
4 3 4 3 2 3 2 7 2 1 3 4 4 1 2 5 3 1 2 3 3 3 1 1 3 5 8 10 11 12 13 13 16 17 15 14 15 11 13 11 9 8 9 8 6 6 7 7 6
2 4 3 2 2 3 5 5 3 5 1 4 3 3 4 4 6 6 5 5 5 6 6 6 6 7 8 9 11 12 15 15 16 17 16 16 16 15 15 14 14 11 10 10 8 7 7 9 9
2 4 0 2 3 3 4 6 2 7 3 6 3 7 8 7 8 9 10 10 11 11 11 11 12 13 13 11 12 14 15 17 18 17 17 19 19 17 17 18 17 16 13 12 11 9 9 9 11
4 3 4 3 1 2 5 2 6 4 8 5 10 5 3 2 5 9 11 12 15 17 18 18 18 18 19 16 14 16 17 18 20 20 21 22 22 19 18 18 18 17 16 14 13 11 11 11 13
1 3 2 2 2 5 3 5 4 4 4 6 9 10 12 12 9 9 11 14 17 18 20 23 25 25 24 21 21 19 19 19 19 21 22 22 22 22 21 20 19 19 18 18 16 14 13 12 14
3 2 2 3 5 7 4 4 4 7 13 15 19 16 16 14 12 15 16 16 16 18 20 22 24 26 27 27 27 25 24 20 21 19 18 23 24 24 24 24 23 22 22 21 18 16 15 14 15
1 4 7 10 17 13 11 8 6 17 16 15 15 16 16 13 15 16 13 8 7 8 9 11 14 19 23 27 25 27 27 27 23 20 17 19 22 23 23 25 25 24 23 24 21 18 17 16 17
5 9 14 9 13 5 2 3 1 6 20 26 24 22 18 13 7 6 7 6 5 5 5 6 8 11 16 20 23 25 29 30 30 26 23 20 22 23 22 23 25 25 24 25 22 20 19 16 19
6 5 8 5 8 4 2 4 2 10 26 23 20 23 18 11 2 3 2 4 4 4 5 8 9 10 10 13 18 22 25 28 30 30 28 27 26 27 26 23 21 23 22 22 23 21 21 19 19
5 4 6 4 9 5 3 6 6 20 19 19 20 17 8 11 10 7 5 5 6 5 5 6 8 10 11 13 16 19 21 25 28 29 29 30 32 31 29 27 25 22 22 23 21 22 22 20 18
7 3 3 8 5 5 7 8 10 19 21 18 16 9 12 12 12 11 9 7 6 7 7 6 7 9 10 11 13 17 21 25 27 28 30 33 35 34 31 31 26 25 24 26 26 24 24 20 19
5 4 3 5 6 7 8 11 6 18 18 11 15 16 16 15 14 11 10 10 10 10 10 10 9 9 9 11 11 12 14 17 23 28 30 31 36 37 32 31 30 28 26 27 26 26 25 22 20
4 4 6 5 6 8 4 11 10 17 16 17 17 18 17 16 13 11 11 12 12 14 16 17 17 15 14 13 15 15 13 10 11 18 26 31 31 29 30 34 32 31 30 26 26 24 26 22 25
3 4 6 8 7 7 9 15 6 12 8 14 15 17 16 14 12 14 16 17 17 18 19 20 22 22 21 19 18 19 21 20 15 11 16 23 28 31 33 31 30 30 32 30 26 29 29 26 28
3 3 4 6 6 5 7 7 4 5 12 15 16 14 16 17 17 17 17 18 18 20 21 22 22 22 23 24 24 21 21 22 24 20 15 16 22 27 28 32 29 29 29 30 28 27 25 31 28
3 5 4 9 9 4 4 6 1 2 3 4 12 13 13 15 15 17 19 20 22 23 25 25 25 25 25 25 25 25 25 26 26 28 25 22 19 22 24 26 31 29 33 32 29 27 29 29 28
4 7 6 7 6 2 5 1 5 2 2 3 7 9 11 12 14 16 19 22 25 26 27 27 24 24 24 24 24 23 27 25 29 27 27 25 23 22 21 22 24 27 32 31 29 31 32 30 26
7 5 6 4 1 2 5 2 5 2 2 2 2 4 7 9 11 13 17 23 27 27 25 25 24 23 24 21 21 22 23 26 29 29 31 26 24 24 23 20 24 25 28 30 28 29 27 25 24
7 8 5 6 3 4 2 5 7 2 1 3 5 8 9 9 10 12 17 23 28 28 25 23 22 21 21 21 20 19 19 21 25 26 28 26 29 29 25 20 23 25 22 23 25 24 21 22 21
2 3 3 6 3 11 12 6 5 3 4 7 11 13 13 14 16 17 18 21 24 22 20 20 22 23 22 22 21 21 22 23 24 26 23 25 27 32 26 20 21 21 22 24 24 23 23 23 22
4 3 2 4 5 3 4 6 3 2 8 13 14 15 20 14 15 17 16 19 21 21 20 20 21 23 24 25 25 27 27 25 27 26 23 24 25 30 22 19 19 22 22 21 21 24 27 29 29
5 3 2 1 4 5 5 9 9 4 8 10 14 24 20 16 22 17 16 17 19 20 19 16 15 25 27 30 30 27 27 26 28 26 25 22 25 26 20 16 18 21 22 21 25 27 21 29 29
3 3 3 1 1 3 5 6 4 9 15 13 17 25 20 22 27 21 17 15 18 19 19 18 20 24 29 32 36 35 27 27 26 25 24 22 24 23 17 16 17 22 23 21 23 30 23 30 26
4 4 4 3 6 4 4 17 15 11 10 22 28 32 28 29 31 23 19 17 20 21 20 21 22 26 28 32 37 36 31 25 25 23 24 19 21 20 13 13 13 16 18 16 17 25 32 24 26
Wind_Direction
48 355 360 28 55 66 328 259 284 296 360 348 294 92 121 93 97 208 360 161 180 202 193 188 190 193 192 193 190 197 200 194 186 180 177 171 171 158 147 139 131 122 89 78 64 63 73 68 54
23 357 22 58 82 66 276 274 227 266 4 108 71 39 46 70 38 32 89 186 169 193 203 199 193 199 204 203 206 206 209 206 193 188 187 179 178 172 165 155 163 153 109 101 83 89 94 67 49
18 13 31 92 111 158 194 232 282 306 25 359 64 59 28 23 5 356 323 197 205 174 198 203 201 203 207 211 215 218 220 216 205 199 195 193 199 195 193 188 183 193 171 134 125 82 111 69 56
6 43 61 80 164 248 222 340 316 331 7 45 81 41 57 298 250 332 338 236 208 169 196 208 208 211 215 219 228 229 228 224 213 209 221 212 235 217 211 209 203 207 209 171 196 227 248 273 48
47 66 55 64 284 267 262 303 354 349 353 22 153 218 262 221 227 303 235 169 166 159 186 201 212 221 225 232 238 240 237 227 225 224 216 222 222 243 230 225 224 220 241 226 210 230 254 271 346
47 66 67 193 250 271 289 3 312 18 360 4 43 164 264 221 188 31 52 189 185 166 192 192 211 228 237 245 251 249 239 230 224 239 230 231 233 232 243 245 235 232 235 238 222 229 250 264 271
117 89 189 184 250 308 290 350 44 32 338 334 321 242 285 232 217 189 174 193 204 203 208 256 241 238 243 251 259 254 250 243 233 241 240 228 241 236 236 245 246 240 246 246 236 225 240 256 260
82 89 132 238 210 260 347 10 19 29 20 352 334 300 318 342 232 253 258 245 240 243 252 257 254 250 256 262 266 267 261 257 252 246 243 241 244 240 237 244 248 250 247 250 251 240 234 247 254
48 59 250 249 137 296 2 21 5 344 303 324 321 297 304 300 233 246 251 255 256 253 256 259 262 264 263 266 273 269 267 263 256 253 248 247 248 248 244 241 247 250 252 252 251 248 236 224 246
78 100 224 226 254 324 317 327 319 331 317 297 293 283 4 340 248 257 262 267 266 260 258 260 259 262 263 258 267 274 281 273 264 257 250 250 253 254 254 250 249 248 252 254 252 248 241 227 231
115 172 218 295 320 337 297 298 297 323 305 293 315 314 298 304 283 266 258 261 268 267 261 258 257 260 264 269 261 259 273 275 273 269 266 257 258 256 256 254 251 248 249 253 253 250 243 235 231
352 284 262 303 335 328 300 295 295 250 276 314 311 305 304 301 279 279 281 279 262 258 262 265 265 263 262 260 262 262 258 265 272 274 273 263 261 259 259 261 258 254 249 250 248 246 248 234 232
35 326 321 306 306 307 286 266 267 286 329 340 330 322 322 310 302 273 272 243 231 240 252 256 259 262 262 262 259 265 265 262 260 262 269 270 263 264 268 262 260 256 251 247 241 245 251 244 237
318 304 300 307 316 347 285 279 238 30 5 356 352 353 356 341 326 250 222 233 247 258 260 263 268 266 262 264 264 257 256 262 267 264 261 261 266 264 269 268 258 254 250 248 246 252 255 248 244
315 340 328 26 342 344 325 347 249 355 349 353 330 342 350 4 350 220 255 261 287 302 290 267 268 268 267 267 268 270 267 259 256 261 269 265 260 262 261 263 258 250 251 243 249 251 246 245 244
25 46 12 323 5 4 50 271 285 336 348 337 339 8 40 63 73 76 59 35 8 337 312 301 293 282 274 267 267 269 273 272 266 257 257 260 263 264 261 256 256 249 248 246 247 245 241 247 242
12 346 339 316 41 11 56 273 276 314 326 317 2 59 89 89 77 65 57 40 16 6 356 337 319 313 301 284 272 268 267 266 267 260 255 258 259 262 257 252 249 249 249 253 250 244 239 241 244
289 314 281 255 293 345 304 275 287 308 301 20 72 95 86 81 70 65 57 40 23 9 357 350 337 316 312 314 297 285 276 271 265 262 259 256 254 256 258 247 253 250 250 252 248 252 243 242 250
263 255 274 259 289 328 263 289 290 302 47 64 78 78 74 64 55 44 29 14 4 357 354 352 347 336 318 312 317 312 304 287 287 274 269 265 262 258 256 253 251 252 248 251 244 242 245 237 240
308 300 304 298 339 344 298 303 18 41 45 67 68 59 49 41 27 19 13 7 1 357 352 350 350 344 338 330 329 329 329 320 318 306 284 273 268 265 260 260 256 252 244 245 241 228 228 240 238
28 11 323 280 300 252 326 295 122 36 64 64 58 48 40 31 21 14 10 5 357 350 344 335 332 337 339 330 319 314 316 323 321 311 305 293 274 268 264 255 253 242 239 242 236 229 230 231 228
303 339 281 313 349 306 87 280 111 83 75 41 30 36 31 15 13 8 2 360 358 351 343 336 326 316 312 319 326 313 318 323 313 315 310 311 297 280 273 261 247 240 235 235 238 235 228 234 225
283 324 278 260 230 360 360 330 279 240 331 360 16 19 15 15 7 4 358 350 351 348 343 335 320 319 312 298 301 314 308 316 312 313 312 311 307 304 288 263 241 236 231 231 230 238 228 236 224
310 318 288 13 78 279 165 130 275 242 261 240 279 344 351 344 345 348 350 352 349 344 341 339 340 339 335 325 311 303 311 311 316 311 314 310 308 312 291 270 241 236 227 226 230 230 226 228 230
24 28 336 336 353 277 210 347 253 231 288 201 243 295 315 320 331 346 348 351 345 344 346 346 347 349 344 341 329 327 322 317 311 306 312 313 307 312 287 285 253 226 214 220 219 208 217 210 202
360 122 170 275 267 292 314 254 275 215 244 270 281 299 314 324 328 331 340 345 343 344 349 352 349 344 338 331 325 325 321 320 316 315 309 305 304 309 281 285 248 215 214 216 216 214 199 194 197
319 60 156 260 266 275 239 299 296 312 298 284 290 308 310 317 325 317 323 338 342 337 336 345 350 349 345 334 324 312 312 316 309 309 307 303 306 310 275 267 230 214 221 219 214 203 206 199 188
126 220 334 346 309 297 302 304 278 307 287 295 295 299 295 308 324 304 312 326 332 335 331 336 343 349 354 354 348 324 318 313 304 307 305 301 308 316 298 249 224 215 218 213 200 201 214 196 180
353 316 66 98 120 243 302 272 227 310 304 305 297 295 283 307 318 307 293 309 319 329 331 332 330 338 345 346 350 347 330 318 312 307 309 299 300 313 303 257 223 211 207 206 215 220 209 180 176
183 167 109 128 285 228 245 275 275 274 298 307 303 298 288 299 307 303 295 299 308 317 326 328 331 335 341 343 347 348 339 323 318 310 314 308 305 299 303 240 221 200 209 213 207 193 175 175 173